Time,TemperatureF,DewpointF,PressureIn,WindDirection,WindDirectionDegrees,WindSpeedMPH,WindSpeedGustMPH,Humidity,HourlyPrecipIn,Conditions,Clouds,dailyrainin,SolarRadiationWatts/m^2,SoftwareType,DateUTC
2013-10-13 00:03:00,46.5,38.7,30.18,SSW,211,0.0,0.0,74,0.00,CLR,,0.00,0.0,WeatherDisplay:10.37,2013-10-13 05:03:00,
2013-10-13 00:08:00,46.7,38.9,30.18,SSW,211,0.0,0.0,74,0.00,CLR,,0.00,0.0,WeatherDisplay:10.37,2013-10-13 05:08:00,
2013-10-13 00:13:00,47.0,38.8,30.18,SSW,211,0.0,0.0,73,0.00,CLR,,0.00,0.0,WeatherDisplay:10.37,2013-10-13 05:13:00,
2013-10-13 00:18:00,47.1,38.9,30.18,SSW,211,0.0,0.0,73,0.00,CLR,,0.00,0.0,WeatherDisplay:10.37,2013-10-13 05:18:00,
2013-10-13 00:23:00,47.1,38.9,30.18,SSW,211,0.0,0.0,73,0.00,CLR,,0.00,0.0,WeatherDisplay:10.37,2013-10-13 05:23:00,
2013-10-13 00:28:00,47.1,38.9,30.18,SSW,211,0.0,0.0,73,0.00,CLR,,0.00,0.0,WeatherDisplay:10.37,2013-10-13 05:28:00,
2013-10-13 00:33:00,47.0,38.8,30.18,SSW,211,0.0,0.0,73,0.00,CLR,,0.00,0.0,WeatherDisplay:10.37,2013-10-13 05:33:00,
2013-10-13 00:38:00,47.1,38.9,30.18,SSW,208,0.0,0.0,73,0.00,CLR,,0.00,0.0,WeatherDisplay:10.37,2013-10-13 05:38:00,
2013-10-13 00:43:00,47.3,39.1,30.18,SSW,209,0.0,0.0,73,0.00,CLR,,0.00,0.0,WeatherDisplay:10.37,2013-10-13 05:43:00,
2013-10-13 00:48:00,47.3,39.1,30.19,SSW,209,0.0,0.0,73,0.00,CLR,,0.00,0.0,WeatherDisplay:10.37,2013-10-13 05:48:00,
2013-10-13 00:53:00,47.4,39.2,30.19,SSW,209,0.0,0.0,73,0.00,CLR,,0.00,0.0,WeatherDisplay:10.37,2013-10-13 05:53:00,
2013-10-13 00:58:00,47.6,39.0,30.19,SSW,209,0.0,0.0,72,0.00,CLR,,0.00,0.0,WeatherDisplay:10.37,2013-10-13 05:58:00,
2013-10-13 01:03:00,47.7,38.8,30.20,SSW,209,0.0,0.0,71,0.00,CLR,,0.00,0.0,WeatherDisplay:10.37,2013-10-13 06:03:00,
2013-10-13 01:08:00,47.7,38.8,30.20,SW,214,0.0,0.0,71,0.00,CLR,,0.00,0.0,WeatherDisplay:10.37,2013-10-13 06:08:00,
2013-10-13 01:13:00,47.7,38.8,30.20,SW,214,0.0,0.0,71,0.00,CLR,,0.00,0.0,WeatherDisplay:10.37,2013-10-13 06:13:00,
2013-10-13 01:18:00,47.6,38.7,30.20,SW,214,0.0,0.0,71,0.00,CLR,,0.00,0.0,WeatherDisplay:10.37,2013-10-13 06:18:00,
2013-10-13 01:23:00,47.4,38.8,30.20,SW,214,0.0,0.0,72,0.00,CLR,,0.00,0.0,WeatherDisplay:10.37,2013-10-13 06:23:00,
2013-10-13 01:28:00,47.3,39.1,30.20,SW,214,0.0,0.0,73,0.00,CLR,,0.00,0.0,WeatherDisplay:10.37,2013-10-13 06:28:00,
2013-10-13 01:33:00,47.1,38.9,30.20,SW,214,0.0,0.0,73,0.00,CLR,,0.00,0.0,WeatherDisplay:10.37,2013-10-13 06:33:00,
2013-10-13 01:38:00,47.1,38.9,30.20,SW,214,0.0,0.0,73,0.00,CLR,,0.00,0.0,WeatherDisplay:10.37,2013-10-13 06:38:00,
2013-10-13 01:43:00,47.0,39.1,30.20,SW,214,0.0,0.0,74,0.00,CLR,,0.00,0.0,WeatherDisplay:10.37,2013-10-13 06:43:00,
2013-10-13 01:48:00,46.8,38.9,30.20,SW,214,0.0,0.0,74,0.00,CLR,,0.00,0.0,WeatherDisplay:10.37,2013-10-13 06:48:00,
2013-10-13 01:53:00,46.8,38.9,30.20,SW,214,0.0,0.0,74,0.00,CLR,,0.00,0.0,WeatherDisplay:10.37,2013-10-13 06:53:00,
2013-10-13 01:58:00,46.8,38.9,30.20,SW,214,0.0,0.0,74,0.00,CLR,,0.00,0.0,WeatherDisplay:10.37,2013-10-13 06:58:00,
2013-10-13 02:03:00,46.8,39.3,30.21,SW,214,0.0,0.0,75,0.00,CLR,,0.00,0.0,WeatherDisplay:10.37,2013-10-13 07:03:00,
2013-10-13 02:08:00,46.8,39.3,30.21,SW,214,0.0,0.0,75,0.00,CLR,,0.00,0.0,WeatherDisplay:10.37,2013-10-13 07:08:00,
2013-10-13 02:13:00,46.8,39.3,30.21,SW,214,0.0,0.0,75,0.00,CLR,,0.00,0.0,WeatherDisplay:10.37,2013-10-13 07:13:00,
2013-10-13 02:18:00,46.8,39.3,30.22,SW,214,0.0,0.0,75,0.00,CLR,,0.00,0.0,WeatherDisplay:10.37,2013-10-13 07:18:00,
2013-10-13 02:23:00,46.8,39.3,30.22,SW,214,0.0,0.0,75,0.00,CLR,,0.00,0.0,WeatherDisplay:10.37,2013-10-13 07:23:00,
2013-10-13 02:28:00,46.7,39.2,30.22,SW,214,0.0,0.0,75,0.00,CLR,,0.00,0.0,WeatherDisplay:10.37,2013-10-13 07:28:00,
2013-10-13 02:33:00,46.7,39.2,30.22,SW,214,0.0,0.0,75,0.00,CLR,,0.00,0.0,WeatherDisplay:10.37,2013-10-13 07:33:00,
2013-10-13 02:38:00,46.5,39.3,30.22,SW,214,0.0,0.0,76,0.00,CLR,,0.00,0.0,WeatherDisplay:10.37,2013-10-13 07:38:00,
2013-10-13 02:43:00,46.5,39.3,30.22,SW,214,0.0,0.0,76,0.00,CLR,,0.00,0.0,WeatherDisplay:10.37,2013-10-13 07:43:00,
2013-10-13 02:48:00,46.4,39.2,30.22,SW,214,0.0,0.0,76,0.00,CLR,,0.00,0.0,WeatherDisplay:10.37,2013-10-13 07:48:00,
2013-10-13 02:53:00,46.5,39.3,30.22,SW,214,0.0,0.0,76,0.00,CLR,,0.00,0.0,WeatherDisplay:10.37,2013-10-13 07:53:00,
2013-10-13 02:58:00,46.7,39.5,30.22,SW,214,0.0,0.0,76,0.00,CLR,,0.00,0.0,WeatherDisplay:10.37,2013-10-13 07:58:00,
2013-10-13 03:03:00,46.8,39.6,30.22,SW,214,0.0,0.0,76,0.00,CLR,,0.00,0.0,WeatherDisplay:10.37,2013-10-13 08:03:00,
2013-10-13 03:08:00,47.1,39.6,30.22,SW,215,0.0,2.2,75,0.00,CLR,,0.00,0.0,WeatherDisplay:10.37,2013-10-13 08:08:00,
2013-10-13 03:13:00,47.4,39.5,30.22,SW,215,0.0,0.0,74,0.00,CLR,,0.00,0.0,WeatherDisplay:10.37,2013-10-13 08:13:00,
2013-10-13 03:18:00,47.6,39.7,30.22,SW,215,0.0,1.2,74,0.00,CLR,,0.00,0.0,WeatherDisplay:10.37,2013-10-13 08:18:00,
2013-10-13 03:23:00,47.6,39.4,30.22,WSW,246,0.0,0.0,73,0.00,CLR,,0.00,0.0,WeatherDisplay:10.37,2013-10-13 08:23:00,
2013-10-13 03:28:00,47.6,39.7,30.22,WSW,249,0.0,0.0,74,0.00,CLR,,0.00,0.0,WeatherDisplay:10.37,2013-10-13 08:28:00,
2013-10-13 03:33:00,47.6,39.7,30.23,WSW,258,0.0,0.0,74,0.00,CLR,,0.00,0.0,WeatherDisplay:10.37,2013-10-13 08:33:00,
2013-10-13 03:38:00,47.4,39.9,30.23,West,259,0.0,0.0,75,0.00,CLR,,0.00,0.0,WeatherDisplay:10.37,2013-10-13 08:38:00,
2013-10-13 03:43:00,47.4,39.9,30.23,WNW,300,0.0,0.0,75,0.00,CLR,,0.00,0.0,WeatherDisplay:10.37,2013-10-13 08:43:00,
2013-10-13 03:48:00,47.4,39.9,30.23,WNW,301,0.0,0.0,75,0.00,CLR,,0.00,0.0,WeatherDisplay:10.37,2013-10-13 08:48:00,
2013-10-13 03:53:00,47.4,39.9,30.23,NNW,342,0.0,0.0,75,0.00,CLR,,0.00,0.0,WeatherDisplay:10.37,2013-10-13 08:53:00,
2013-10-13 03:58:00,47.4,39.9,30.23,WSW,254,0.0,0.0,75,0.00,CLR,,0.00,0.0,WeatherDisplay:10.37,2013-10-13 08:58:00,
2013-10-13 04:03:00,47.6,40.1,30.24,WSW,255,0.0,2.3,75,0.00,CLR,,0.00,0.0,WeatherDisplay:10.37,2013-10-13 09:03:00,
2013-10-13 04:08:00,47.6,40.1,30.24,WNW,284,0.0,0.0,75,0.00,CLR,,0.00,0.0,WeatherDisplay:10.37,2013-10-13 09:08:00,
2013-10-13 04:13:00,47.6,40.1,30.24,WNW,284,0.0,0.0,75,0.00,CLR,,0.00,0.0,WeatherDisplay:10.37,2013-10-13 09:13:00,
2013-10-13 04:18:00,47.3,40.1,30.24,WNW,284,0.0,0.0,76,0.00,CLR,,0.00,0.0,WeatherDisplay:10.37,2013-10-13 09:18:00,
2013-10-13 04:23:00,47.0,39.8,30.24,WNW,284,0.0,0.0,76,0.00,CLR,,0.00,0.0,WeatherDisplay:10.37,2013-10-13 09:23:00,
2013-10-13 04:28:00,46.7,39.9,30.24,WNW,284,0.0,0.0,77,0.00,CLR,,0.00,0.0,WeatherDisplay:10.37,2013-10-13 09:28:00,
2013-10-13 04:33:00,46.2,39.7,30.25,WNW,284,0.0,0.0,78,0.00,CLR,,0.00,0.0,WeatherDisplay:10.37,2013-10-13 09:33:00,
2013-10-13 04:38:00,46.0,39.5,30.25,WNW,284,0.0,0.0,78,0.00,CLR,,0.00,0.0,WeatherDisplay:10.37,2013-10-13 09:38:00,
2013-10-13 04:43:00,45.7,39.6,30.25,WNW,284,0.0,0.0,79,0.00,CLR,,0.00,0.0,WeatherDisplay:10.37,2013-10-13 09:43:00,
2013-10-13 04:48:00,45.5,39.4,30.25,West,271,0.0,0.0,79,0.00,CLR,,0.00,0.0,WeatherDisplay:10.37,2013-10-13 09:48:00,
2013-10-13 04:53:00,45.4,39.6,30.25,West,271,0.0,0.0,80,0.00,CLR,,0.00,0.0,WeatherDisplay:10.37,2013-10-13 09:53:00,
2013-10-13 04:58:00,45.4,39.6,30.25,West,271,0.0,0.0,80,0.00,CLR,,0.00,0.0,WeatherDisplay:10.37,2013-10-13 09:58:00,
2013-10-13 05:03:00,45.2,39.4,30.27,West,271,0.0,0.0,80,0.00,CLR,,0.00,0.0,WeatherDisplay:10.37,2013-10-13 10:03:00,
2013-10-13 05:08:00,45.2,39.7,30.27,West,271,0.0,0.0,81,0.00,CLR,,0.00,0.0,WeatherDisplay:10.37,2013-10-13 10:08:00,
2013-10-13 05:13:00,45.1,39.6,30.27,West,271,0.0,0.0,81,0.00,CLR,,0.00,0.0,WeatherDisplay:10.37,2013-10-13 10:13:00,
2013-10-13 05:18:00,44.8,39.3,30.27,West,271,0.0,0.0,81,0.00,CLR,,0.00,0.0,WeatherDisplay:10.37,2013-10-13 10:18:00,
2013-10-13 05:23:00,44.5,39.3,30.27,West,271,0.0,0.0,82,0.00,CLR,,0.00,0.0,WeatherDisplay:10.37,2013-10-13 10:23:00,
2013-10-13 05:28:00,44.2,39.1,30.27,West,271,0.0,0.0,82,0.00,CLR,,0.00,0.0,WeatherDisplay:10.37,2013-10-13 10:28:00,
2013-10-13 05:33:00,43.9,39.1,30.27,West,271,0.0,0.0,83,0.00,CLR,,0.00,0.0,WeatherDisplay:10.37,2013-10-13 10:33:00,
2013-10-13 05:38:00,43.5,38.7,30.27,West,271,0.0,0.0,83,0.00,CLR,,0.00,0.0,WeatherDisplay:10.37,2013-10-13 10:38:00,
2013-10-13 05:43:00,43.3,38.8,30.27,West,271,0.0,0.0,84,0.00,CLR,,0.00,0.0,WeatherDisplay:10.37,2013-10-13 10:43:00,
2013-10-13 05:48:00,43.2,38.7,30.28,West,271,0.0,0.0,84,0.00,CLR,,0.00,0.0,WeatherDisplay:10.37,2013-10-13 10:48:00,
2013-10-13 05:53:00,43.1,38.9,30.28,West,271,0.0,0.0,85,0.00,CLR,,0.00,0.0,WeatherDisplay:10.37,2013-10-13 10:53:00,
2013-10-13 05:58:00,42.8,38.6,30.28,West,271,0.0,0.0,85,0.00,CLR,,0.00,0.0,WeatherDisplay:10.37,2013-10-13 10:58:00,
2013-10-13 06:03:00,42.8,38.6,30.28,West,271,0.0,0.0,85,0.00,CLR,,0.00,0.0,WeatherDisplay:10.37,2013-10-13 11:03:00,
2013-10-13 06:08:00,42.5,38.6,30.28,West,271,0.0,0.0,86,0.00,CLR,,0.00,0.0,WeatherDisplay:10.37,2013-10-13 11:08:00,
2013-10-13 06:13:00,42.3,38.4,30.28,West,271,0.0,0.0,86,0.00,CLR,,0.00,0.0,WeatherDisplay:10.37,2013-10-13 11:13:00,
2013-10-13 06:18:00,42.3,38.4,30.29,West,271,0.0,0.0,86,0.00,CLR,,0.00,0.0,WeatherDisplay:10.37,2013-10-13 11:18:00,
2013-10-13 06:23:00,42.2,38.6,30.29,West,271,0.0,0.0,87,0.00,CLR,,0.00,0.0,WeatherDisplay:10.37,2013-10-13 11:23:00,
2013-10-13 06:28:00,41.9,38.3,30.29,West,271,0.0,0.0,87,0.00,CLR,,0.00,0.0,WeatherDisplay:10.37,2013-10-13 11:28:00,
2013-10-13 06:33:00,41.8,38.2,30.30,West,271,0.0,0.0,87,0.00,CLR,,0.00,0.0,WeatherDisplay:10.37,2013-10-13 11:33:00,
2013-10-13 06:38:00,41.6,38.0,30.30,West,271,0.0,0.0,87,0.00,CLR,,0.00,0.0,WeatherDisplay:10.37,2013-10-13 11:38:00,
2013-10-13 06:43:00,41.8,38.5,30.30,West,271,0.0,0.0,88,0.00,CLR,,0.00,0.0,WeatherDisplay:10.37,2013-10-13 11:43:00,
2013-10-13 06:48:00,41.8,38.5,30.31,West,271,0.0,0.0,88,0.00,CLR,,0.00,0.0,WeatherDisplay:10.37,2013-10-13 11:48:00,
2013-10-13 06:53:00,41.8,38.8,30.31,West,271,0.0,0.0,89,0.00,CLR,,0.00,0.0,WeatherDisplay:10.37,2013-10-13 11:53:00,
2013-10-13 06:58:00,42.1,39.1,30.31,West,270,0.0,0.0,89,0.00,CLR,,0.00,0.0,WeatherDisplay:10.37,2013-10-13 11:58:00,
2013-10-13 07:03:00,42.3,39.0,30.31,West,270,0.0,0.0,88,0.00,CLR,,0.00,0.0,WeatherDisplay:10.37,2013-10-13 12:03:00,
2013-10-13 07:08:00,42.3,39.0,30.31,West,270,0.0,0.0,88,0.00,CLR,,0.00,0.0,WeatherDisplay:10.37,2013-10-13 12:08:00,
2013-10-13 07:13:00,42.3,39.0,30.31,West,270,0.0,0.0,88,0.00,CLR,,0.00,0.0,WeatherDisplay:10.37,2013-10-13 12:13:00,
2013-10-13 07:18:00,42.2,38.9,30.32,West,270,0.0,0.0,88,0.00,CLR,,0.00,5.0,WeatherDisplay:10.37,2013-10-13 12:18:00,
2013-10-13 07:23:00,42.2,38.6,30.32,West,270,0.0,0.0,87,0.00,CLR,,0.00,9.0,WeatherDisplay:10.37,2013-10-13 12:23:00,
2013-10-13 07:28:00,42.2,38.6,30.32,West,270,0.0,0.0,87,0.00,CLR,,0.00,11.0,WeatherDisplay:10.37,2013-10-13 12:28:00,
2013-10-13 07:33:00,42.3,38.7,30.33,West,270,0.0,0.0,87,0.00,CLR,,0.00,12.0,WeatherDisplay:10.37,2013-10-13 12:33:00,
2013-10-13 07:38:00,42.5,38.9,30.33,West,260,0.0,0.0,87,0.00,CLR,,0.00,16.0,WeatherDisplay:10.37,2013-10-13 12:38:00,
2013-10-13 07:43:00,42.5,38.9,30.33,West,260,0.0,0.0,87,0.00,CLR,,0.00,18.0,WeatherDisplay:10.37,2013-10-13 12:43:00,
2013-10-13 07:48:00,42.6,38.7,30.33,West,260,0.0,0.0,86,0.00,CLR,,0.00,79.0,WeatherDisplay:10.37,2013-10-13 12:48:00,
2013-10-13 07:53:00,42.6,38.7,30.33,WSW,251,0.0,0.0,86,0.00,CLR,,0.00,21.0,WeatherDisplay:10.37,2013-10-13 12:53:00,
2013-10-13 07:58:00,42.9,39.0,30.33,WSW,251,0.0,0.0,86,0.00,CLR,,0.00,26.0,WeatherDisplay:10.37,2013-10-13 12:58:00,
2013-10-13 08:03:00,43.2,39.3,30.35,WSW,251,0.0,0.0,86,0.00,CLR,,0.00,23.0,WeatherDisplay:10.37,2013-10-13 13:03:00,
2013-10-13 08:08:00,43.3,39.4,30.35,WSW,251,0.0,0.0,86,0.00,CLR,,0.00,23.0,WeatherDisplay:10.37,2013-10-13 13:08:00,
2013-10-13 08:13:00,43.6,39.7,30.35,WSW,252,0.0,0.0,86,0.00,CLR,,0.00,32.0,WeatherDisplay:10.37,2013-10-13 13:13:00,
2013-10-13 08:18:00,43.9,39.7,30.36,WSW,252,0.0,0.0,85,0.00,CLR,,0.00,42.0,WeatherDisplay:10.37,2013-10-13 13:18:00,
2013-10-13 08:23:00,44.3,39.8,30.36,WNW,295,0.1,1.2,84,0.00,CLR,,0.00,32.0,WeatherDisplay:10.37,2013-10-13 13:23:00,
2013-10-13 08:28:00,44.9,40.4,30.36,SW,229,0.0,3.5,84,0.00,CLR,,0.00,63.0,WeatherDisplay:10.37,2013-10-13 13:28:00,
2013-10-13 08:33:00,45.7,40.8,30.37,WNW,292,0.0,1.2,83,0.00,CLR,,0.00,35.0,WeatherDisplay:10.37,2013-10-13 13:33:00,
2013-10-13 08:38:00,46.0,40.8,30.37,SSW,203,0.0,0.0,82,0.00,CLR,,0.00,42.0,WeatherDisplay:10.37,2013-10-13 13:38:00,
2013-10-13 08:43:00,46.4,40.9,30.37,WNW,289,0.0,0.0,81,0.00,CLR,,0.00,30.0,WeatherDisplay:10.37,2013-10-13 13:43:00,
2013-10-13 08:48:00,46.8,41.0,30.37,NW,304,0.3,0.0,80,0.00,CLR,,0.00,81.0,WeatherDisplay:10.37,2013-10-13 13:48:00,
2013-10-13 08:53:00,47.0,40.8,30.37,WNW,288,0.1,1.2,79,0.00,CLR,,0.00,40.0,WeatherDisplay:10.37,2013-10-13 13:53:00,
2013-10-13 08:58:00,47.3,40.8,30.37,West,273,0.8,5.8,78,0.00,CLR,,0.00,33.0,WeatherDisplay:10.37,2013-10-13 13:58:00,
2013-10-13 09:03:00,47.6,40.7,30.37,NW,304,0.0,3.5,77,0.00,CLR,,0.00,53.0,WeatherDisplay:10.37,2013-10-13 14:03:00,
2013-10-13 09:08:00,47.9,40.7,30.37,WNW,295,0.1,1.1,76,0.00,CLR,,0.00,30.0,WeatherDisplay:10.37,2013-10-13 14:08:00,
2013-10-13 09:13:00,48.2,41.0,30.37,WNW,300,0.9,2.2,76,0.00,CLR,,0.00,39.0,WeatherDisplay:10.37,2013-10-13 14:13:00,
2013-10-13 09:18:00,48.5,40.9,30.38,NW,311,0.0,6.9,75,0.00,CLR,,0.00,35.0,WeatherDisplay:10.37,2013-10-13 14:18:00,
2013-10-13 09:23:00,48.6,41.0,30.38,WNW,294,0.0,2.3,75,0.00,CLR,,0.00,30.0,WeatherDisplay:10.37,2013-10-13 14:23:00,
2013-10-13 09:28:00,48.9,41.3,30.38,NW,306,0.5,2.3,75,0.00,CLR,,0.00,30.0,WeatherDisplay:10.37,2013-10-13 14:28:00,
2013-10-13 09:33:00,49.1,40.8,30.38,WNW,297,1.4,7.7,73,0.00,CLR,,0.00,32.0,WeatherDisplay:10.37,2013-10-13 14:33:00,
2013-10-13 09:38:00,49.4,41.1,30.38,NW,317,1.1,6.9,73,0.00,CLR,,0.00,32.0,WeatherDisplay:10.37,2013-10-13 14:38:00,
2013-10-13 09:43:00,49.6,40.9,30.38,NNW,327,0.9,4.6,72,0.00,CLR,,0.00,33.0,WeatherDisplay:10.37,2013-10-13 14:43:00,
2013-10-13 09:48:00,49.9,41.2,30.39,West,281,0.2,2.3,72,0.00,CLR,,0.00,35.0,WeatherDisplay:10.37,2013-10-13 14:48:00,
2013-10-13 09:53:00,50.2,41.2,30.39,West,281,0.2,2.2,71,0.00,CLR,,0.00,32.0,WeatherDisplay:10.37,2013-10-13 14:53:00,
2013-10-13 09:58:00,50.7,40.9,30.39,NW,306,0.1,4.6,69,0.00,CLR,,0.00,84.0,WeatherDisplay:10.37,2013-10-13 14:58:00,
2013-10-13 10:03:00,50.8,40.2,30.39,NW,304,0.1,3.5,67,0.00,CLR,,0.00,432.0,WeatherDisplay:10.37,2013-10-13 15:03:00,
2013-10-13 10:08:00,51.4,39.2,30.39,NW,324,2.5,5.8,63,0.00,CLR,,0.00,496.0,WeatherDisplay:10.37,2013-10-13 15:08:00,
2013-10-13 10:13:00,51.6,40.2,30.39,NW,304,0.6,3.5,65,0.00,CLR,,0.00,506.0,WeatherDisplay:10.37,2013-10-13 15:13:00,
2013-10-13 10:18:00,51.6,38.6,30.40,NW,311,1.4,8.1,61,0.00,CLR,,0.00,519.0,WeatherDisplay:10.37,2013-10-13 15:18:00,
2013-10-13 10:23:00,51.9,38.4,30.40,North,360,0.1,3.5,60,0.00,CLR,,0.00,526.0,WeatherDisplay:10.37,2013-10-13 15:23:00,
2013-10-13 10:28:00,52.2,39.6,30.40,North,355,2.8,9.2,62,0.00,CLR,,0.00,534.0,WeatherDisplay:10.37,2013-10-13 15:28:00,
2013-10-13 10:33:00,52.2,38.7,30.40,WNW,295,1.8,6.9,60,0.00,CLR,,0.00,547.0,WeatherDisplay:10.37,2013-10-13 15:33:00,
2013-10-13 10:38:00,52.6,39.5,30.40,NE,54,1.5,8.1,61,0.00,CLR,,0.00,555.0,WeatherDisplay:10.37,2013-10-13 15:38:00,
2013-10-13 10:43:00,52.6,37.8,30.40,West,277,2.2,8.1,57,0.00,CLR,,0.00,563.0,WeatherDisplay:10.37,2013-10-13 15:43:00,
2013-10-13 10:48:00,52.9,39.0,30.41,WNW,290,0.6,4.6,59,0.00,CLR,,0.00,573.0,WeatherDisplay:10.37,2013-10-13 15:48:00,
2013-10-13 10:53:00,53.3,38.9,30.41,WNW,298,0.7,2.3,58,0.00,CLR,,0.00,580.0,WeatherDisplay:10.37,2013-10-13 15:53:00,
2013-10-13 10:58:00,53.2,38.8,30.41,North,355,2.6,10.4,58,0.00,CLR,,0.00,589.0,WeatherDisplay:10.37,2013-10-13 15:58:00,
2013-10-13 11:03:00,52.9,37.6,30.41,West,271,0.6,3.5,56,0.00,CLR,,0.00,596.0,WeatherDisplay:10.37,2013-10-13 16:03:00,
2013-10-13 11:08:00,53.6,38.3,30.41,SW,230,0.0,8.1,56,0.00,CLR,,0.00,603.0,WeatherDisplay:10.37,2013-10-13 16:08:00,
2013-10-13 11:13:00,54.1,39.2,30.41,North,349,0.0,0.0,57,0.00,CLR,,0.00,608.0,WeatherDisplay:10.37,2013-10-13 16:13:00,
2013-10-13 11:18:00,54.4,37.1,30.41,NNE,28,1.4,5.8,52,0.00,CLR,,0.00,617.0,WeatherDisplay:10.37,2013-10-13 16:18:00,
2013-10-13 11:23:00,55.1,37.8,30.41,SW,215,1.5,3.3,52,0.00,CLR,,0.00,622.0,WeatherDisplay:10.37,2013-10-13 16:23:00,
2013-10-13 11:28:00,54.7,36.9,30.41,NW,319,3.0,9.2,51,0.00,CLR,,0.00,629.0,WeatherDisplay:10.37,2013-10-13 16:28:00,
2013-10-13 11:33:00,54.8,37.5,30.42,West,271,0.0,1.2,52,0.00,CLR,,0.00,633.0,WeatherDisplay:10.37,2013-10-13 16:33:00,
2013-10-13 11:38:00,55.0,36.2,30.42,West,261,1.7,9.2,49,0.00,CLR,,0.00,640.0,WeatherDisplay:10.37,2013-10-13 16:38:00,
2013-10-13 11:43:00,54.4,36.6,30.42,WNW,301,3.9,9.9,51,0.00,CLR,,0.00,642.0,WeatherDisplay:10.37,2013-10-13 16:43:00,
2013-10-13 11:48:00,54.2,37.4,30.42,NNW,337,1.1,3.5,53,0.00,CLR,,0.00,649.0,WeatherDisplay:10.37,2013-10-13 16:48:00,
2013-10-13 11:53:00,54.5,37.2,30.42,WNW,298,3.2,5.5,52,0.00,CLR,,0.00,649.0,WeatherDisplay:10.37,2013-10-13 16:53:00,
2013-10-13 11:58:00,54.7,36.9,30.42,West,271,2.3,8.1,51,0.00,CLR,,0.00,652.0,WeatherDisplay:10.37,2013-10-13 16:58:00,
2013-10-13 12:03:00,55.0,38.2,30.42,West,279,0.6,4.6,53,0.00,CLR,,0.00,656.0,WeatherDisplay:10.37,2013-10-13 17:03:00,
2013-10-13 12:08:00,55.7,38.3,30.42,NW,306,0.6,8.1,52,0.00,CLR,,0.00,656.0,WeatherDisplay:10.37,2013-10-13 17:08:00,
2013-10-13 12:13:00,55.6,38.2,30.42,WNW,283,0.0,0.0,52,0.00,CLR,,0.00,659.0,WeatherDisplay:10.37,2013-10-13 17:13:00,
2013-10-13 12:18:00,56.0,38.1,30.42,NW,324,0.4,3.5,51,0.00,CLR,,0.00,663.0,WeatherDisplay:10.37,2013-10-13 17:18:00,
2013-10-13 12:23:00,56.2,36.8,30.42,NW,304,0.2,3.5,48,0.00,CLR,,0.00,666.0,WeatherDisplay:10.37,2013-10-13 17:23:00,
2013-10-13 12:28:00,56.2,36.8,30.42,WNW,299,1.4,9.2,48,0.00,CLR,,0.00,666.0,WeatherDisplay:10.37,2013-10-13 17:28:00,
2013-10-13 12:33:00,57.2,36.6,30.42,SW,219,0.0,0.0,46,0.00,CLR,,0.00,664.0,WeatherDisplay:10.37,2013-10-13 17:33:00,
2013-10-13 12:38:00,56.6,37.1,30.42,NNW,344,2.0,11.5,48,0.00,CLR,,0.00,668.0,WeatherDisplay:10.37,2013-10-13 17:38:00,
2013-10-13 12:43:00,57.2,38.2,30.42,WNW,302,0.0,0.0,49,0.00,CLR,,0.00,664.0,WeatherDisplay:10.37,2013-10-13 17:43:00,
2013-10-13 12:48:00,57.0,37.0,30.42,WSW,248,3.5,8.1,47,0.00,CLR,,0.00,666.0,WeatherDisplay:10.37,2013-10-13 17:48:00,
2013-10-13 12:53:00,56.6,36.6,30.42,NW,306,1.2,6.6,47,0.00,CLR,,0.00,664.0,WeatherDisplay:10.37,2013-10-13 17:53:00,
2013-10-13 12:58:00,56.7,36.1,30.42,NNE,13,2.6,6.9,46,0.00,CLR,,0.00,661.0,WeatherDisplay:10.37,2013-10-13 17:58:00,
2013-10-13 13:03:00,56.6,35.5,30.42,NW,306,3.5,10.4,45,0.00,CLR,,0.00,661.0,WeatherDisplay:10.37,2013-10-13 18:03:00,
2013-10-13 13:08:00,56.9,37.4,30.42,West,279,0.1,4.6,48,0.00,CLR,,0.00,659.0,WeatherDisplay:10.37,2013-10-13 18:08:00,
2013-10-13 13:13:00,57.5,36.9,30.42,NW,308,1.4,2.3,46,0.00,CLR,,0.00,656.0,WeatherDisplay:10.37,2013-10-13 18:13:00,
2013-10-13 13:18:00,57.8,37.1,30.41,NW,319,1.8,6.6,46,0.00,CLR,,0.00,650.0,WeatherDisplay:10.37,2013-10-13 18:18:00,
2013-10-13 13:23:00,57.8,37.1,30.41,NW,311,0.8,1.2,46,0.00,CLR,,0.00,645.0,WeatherDisplay:10.37,2013-10-13 18:23:00,
2013-10-13 13:28:00,58.3,35.9,30.41,NNE,19,4.7,8.1,43,0.00,CLR,,0.00,643.0,WeatherDisplay:10.37,2013-10-13 18:28:00,
2013-10-13 13:33:00,58.4,37.1,30.41,SW,229,2.4,4.6,45,0.00,CLR,,0.00,642.0,WeatherDisplay:10.37,2013-10-13 18:33:00,
2013-10-13 13:38:00,58.0,36.8,30.41,WNW,296,1.8,9.2,45,0.00,CLR,,0.00,636.0,WeatherDisplay:10.37,2013-10-13 18:38:00,
2013-10-13 13:43:00,58.7,37.4,30.41,NW,326,0.1,2.2,45,0.00,CLR,,0.00,633.0,WeatherDisplay:10.37,2013-10-13 18:43:00,
2013-10-13 13:48:00,59.3,38.5,30.40,West,261,0.7,4.4,46,0.00,CLR,,0.00,626.0,WeatherDisplay:10.37,2013-10-13 18:48:00,
2013-10-13 13:53:00,58.9,35.8,30.40,West,265,2.0,5.8,42,0.00,CLR,,0.00,622.0,WeatherDisplay:10.37,2013-10-13 18:53:00,
2013-10-13 13:58:00,59.0,35.9,30.40,NW,306,0.8,6.6,42,0.00,CLR,,0.00,615.0,WeatherDisplay:10.37,2013-10-13 18:58:00,
2013-10-13 14:03:00,58.7,36.2,30.40,NNW,335,0.7,6.6,43,0.00,CLR,,0.00,608.0,WeatherDisplay:10.37,2013-10-13 19:03:00,
2013-10-13 14:08:00,59.6,37.1,30.40,NNW,329,2.1,4.4,43,0.00,CLR,,0.00,601.0,WeatherDisplay:10.37,2013-10-13 19:08:00,
2013-10-13 14:13:00,59.8,36.0,30.40,North,355,0.0,2.3,41,0.00,CLR,,0.00,592.0,WeatherDisplay:10.37,2013-10-13 19:13:00,
2013-10-13 14:18:00,60.1,36.9,30.40,SW,223,1.1,4.6,42,0.00,CLR,,0.00,584.0,WeatherDisplay:10.37,2013-10-13 19:18:00,
2013-10-13 14:23:00,59.8,37.2,30.40,West,276,0.0,0.0,43,0.00,CLR,,0.00,577.0,WeatherDisplay:10.37,2013-10-13 19:23:00,
2013-10-13 14:28:00,59.8,36.0,30.40,WNW,303,0.0,1.2,41,0.00,CLR,,0.00,570.0,WeatherDisplay:10.37,2013-10-13 19:28:00,
2013-10-13 14:33:00,59.5,34.5,30.40,South,188,2.1,6.6,39,0.00,CLR,,0.00,563.0,WeatherDisplay:10.37,2013-10-13 19:33:00,
2013-10-13 14:38:00,59.9,34.9,30.40,WSW,257,0.0,1.2,39,0.00,CLR,,0.00,555.0,WeatherDisplay:10.37,2013-10-13 19:38:00,
2013-10-13 14:43:00,60.2,35.8,30.40,West,266,0.0,6.9,40,0.00,CLR,,0.00,545.0,WeatherDisplay:10.37,2013-10-13 19:43:00,
2013-10-13 14:48:00,59.5,34.5,30.40,West,278,4.2,8.1,39,0.00,CLR,,0.00,536.0,WeatherDisplay:10.37,2013-10-13 19:48:00,
2013-10-13 14:53:00,59.8,35.4,30.40,North,351,1.3,6.9,40,0.00,CLR,,0.00,524.0,WeatherDisplay:10.37,2013-10-13 19:53:00,
2013-10-13 14:58:00,60.2,37.6,30.40,NNW,331,0.0,3.5,43,0.00,CLR,,0.00,517.0,WeatherDisplay:10.37,2013-10-13 19:58:00,
2013-10-13 15:03:00,61.2,35.4,30.40,SW,219,0.0,1.2,38,0.00,CLR,,0.00,506.0,WeatherDisplay:10.37,2013-10-13 20:03:00,
2013-10-13 15:08:00,60.5,34.7,30.40,WSW,254,0.1,2.3,38,0.00,CLR,,0.00,496.0,WeatherDisplay:10.37,2013-10-13 20:08:00,
2013-10-13 15:13:00,61.3,36.1,30.40,WSW,254,0.0,0.0,39,0.00,CLR,,0.00,485.0,WeatherDisplay:10.37,2013-10-13 20:13:00,
2013-10-13 15:18:00,61.5,35.0,30.39,WSW,254,0.0,0.0,37,0.00,CLR,,0.00,473.0,WeatherDisplay:10.37,2013-10-13 20:18:00,
2013-10-13 15:23:00,61.6,35.1,30.39,NW,309,0.4,2.2,37,0.00,CLR,,0.00,464.0,WeatherDisplay:10.37,2013-10-13 20:23:00,
2013-10-13 15:28:00,62.4,36.4,30.39,NW,317,0.0,0.0,38,0.00,CLR,,0.00,452.0,WeatherDisplay:10.37,2013-10-13 20:28:00,
2013-10-13 15:33:00,62.6,37.9,30.39,West,274,0.7,6.6,40,0.00,CLR,,0.00,443.0,WeatherDisplay:10.37,2013-10-13 20:33:00,
2013-10-13 15:38:00,61.2,35.4,30.39,NW,317,0.0,1.2,38,0.00,CLR,,0.00,434.0,WeatherDisplay:10.37,2013-10-13 20:38:00,
2013-10-13 15:43:00,61.2,36.0,30.39,West,265,0.4,3.3,39,0.00,CLR,,0.00,422.0,WeatherDisplay:10.37,2013-10-13 20:43:00,
2013-10-13 15:48:00,61.2,37.3,30.39,WNW,286,0.0,3.5,41,0.00,CLR,,0.00,410.0,WeatherDisplay:10.37,2013-10-13 20:48:00,
2013-10-13 15:53:00,60.9,36.4,30.39,NNW,335,0.1,4.6,40,0.00,CLR,,0.00,399.0,WeatherDisplay:10.37,2013-10-13 20:53:00,
2013-10-13 15:58:00,61.0,35.2,30.39,West,273,0.0,0.0,38,0.00,CLR,,0.00,383.0,WeatherDisplay:10.37,2013-10-13 20:58:00,
2013-10-13 16:03:00,60.5,35.4,30.39,WSW,250,0.0,1.2,39,0.00,CLR,,0.00,371.0,WeatherDisplay:10.37,2013-10-13 21:03:00,
2013-10-13 16:08:00,60.5,34.7,30.39,WSW,246,2.6,6.6,38,0.00,CLR,,0.00,359.0,WeatherDisplay:10.37,2013-10-13 21:08:00,
2013-10-13 16:13:00,60.7,35.6,30.39,NW,313,0.0,0.0,39,0.00,CLR,,0.00,343.0,WeatherDisplay:10.37,2013-10-13 21:13:00,
2013-10-13 16:18:00,60.5,35.4,30.40,West,273,0.1,2.3,39,0.00,CLR,,0.00,330.0,WeatherDisplay:10.37,2013-10-13 21:18:00,
2013-10-13 16:23:00,60.5,35.4,30.40,WSW,239,0.0,0.0,39,0.00,CLR,,0.00,316.0,WeatherDisplay:10.37,2013-10-13 21:23:00,
2013-10-13 16:28:00,61.2,36.7,30.40,WSW,247,0.0,1.2,40,0.00,CLR,,0.00,304.0,WeatherDisplay:10.37,2013-10-13 21:28:00,
2013-10-13 16:33:00,60.5,34.7,30.40,WSW,243,0.0,1.2,38,0.00,CLR,,0.00,288.0,WeatherDisplay:10.37,2013-10-13 21:33:00,
2013-10-13 16:39:00,60.7,35.6,30.40,WSW,249,0.0,0.0,39,0.00,CLR,,0.00,276.0,WeatherDisplay:10.37,2013-10-13 21:39:00,
2013-10-13 16:44:00,60.9,35.1,30.40,WNW,292,0.2,1.2,38,0.00,CLR,,0.00,265.0,WeatherDisplay:10.37,2013-10-13 21:44:00,
2013-10-13 16:49:00,60.9,35.8,30.39,NW,309,0.0,0.0,39,0.00,CLR,,0.00,251.0,WeatherDisplay:10.37,2013-10-13 21:49:00,
2013-10-13 16:54:00,60.7,34.9,30.39,NW,308,0.0,0.0,38,0.00,CLR,,0.00,209.0,WeatherDisplay:10.37,2013-10-13 21:54:00,
2013-10-13 16:59:00,60.2,35.1,30.39,NW,307,0.2,1.1,39,0.00,CLR,,0.00,216.0,WeatherDisplay:10.37,2013-10-13 21:59:00,
2013-10-13 17:04:00,59.9,34.9,30.39,NW,304,0.0,1.1,39,0.00,CLR,,0.00,100.0,WeatherDisplay:10.37,2013-10-13 22:04:00,
2013-10-13 17:09:00,59.5,35.1,30.39,WNW,290,0.0,0.0,40,0.00,CLR,,0.00,37.0,WeatherDisplay:10.37,2013-10-13 22:09:00,
2013-10-13 17:14:00,59.2,34.9,30.39,WNW,294,0.0,0.0,40,0.00,CLR,,0.00,33.0,WeatherDisplay:10.37,2013-10-13 22:14:00,
2013-10-13 17:19:00,58.7,35.0,30.40,WNW,290,0.0,0.0,41,0.00,CLR,,0.00,28.0,WeatherDisplay:10.37,2013-10-13 22:19:00,
2013-10-13 17:24:00,58.6,35.6,30.40,WNW,290,0.0,0.0,42,0.00,CLR,,0.00,25.0,WeatherDisplay:10.37,2013-10-13 22:24:00,
2013-10-13 17:29:00,58.3,35.3,30.40,WNW,292,0.0,3.5,42,0.00,CLR,,0.00,25.0,WeatherDisplay:10.37,2013-10-13 22:29:00,
2013-10-13 17:34:00,58.1,36.9,30.40,WNW,292,0.0,0.0,45,0.00,CLR,,0.00,40.0,WeatherDisplay:10.37,2013-10-13 22:34:00,
2013-10-13 17:39:00,58.0,36.2,30.40,WNW,292,0.0,0.0,44,0.00,CLR,,0.00,21.0,WeatherDisplay:10.37,2013-10-13 22:39:00,
2013-10-13 17:44:00,57.8,36.0,30.40,WNW,303,1.0,5.8,44,0.00,CLR,,0.00,25.0,WeatherDisplay:10.37,2013-10-13 22:44:00,
2013-10-13 17:49:00,57.5,36.9,30.40,WNW,303,0.0,0.0,46,0.00,CLR,,0.00,19.0,WeatherDisplay:10.37,2013-10-13 22:49:00,
2013-10-13 17:54:00,57.3,36.7,30.40,WSW,254,0.0,0.0,46,0.00,CLR,,0.00,23.0,WeatherDisplay:10.37,2013-10-13 22:54:00,
2013-10-13 17:59:00,57.0,36.4,30.40,WSW,254,0.0,1.2,46,0.00,CLR,,0.00,14.0,WeatherDisplay:10.37,2013-10-13 22:59:00,
2013-10-13 18:04:00,56.7,36.1,30.40,WSW,254,0.0,0.0,46,0.00,CLR,,0.00,12.0,WeatherDisplay:10.37,2013-10-13 23:04:00,
2013-10-13 18:09:00,56.6,36.6,30.40,WSW,254,0.0,0.0,47,0.00,CLR,,0.00,11.0,WeatherDisplay:10.37,2013-10-13 23:09:00,
2013-10-13 18:14:00,56.3,36.8,30.40,WSW,254,0.0,0.0,48,0.00,CLR,,0.00,7.0,WeatherDisplay:10.37,2013-10-13 23:14:00,
2013-10-13 18:19:00,55.9,37.0,30.40,WSW,254,0.0,0.0,49,0.00,CLR,,0.00,5.0,WeatherDisplay:10.37,2013-10-13 23:19:00,
2013-10-13 18:24:00,55.4,37.1,30.40,WSW,254,0.0,0.0,50,0.00,CLR,,0.00,0.0,WeatherDisplay:10.37,2013-10-13 23:24:00,
2013-10-13 18:29:00,55.0,36.7,30.40,WSW,254,0.0,0.0,50,0.00,CLR,,0.00,0.0,WeatherDisplay:10.37,2013-10-13 23:29:00,
2013-10-13 18:34:00,54.5,36.7,30.41,WSW,254,0.0,0.0,51,0.00,CLR,,0.00,0.0,WeatherDisplay:10.37,2013-10-13 23:34:00,
2013-10-13 18:39:00,54.2,37.4,30.41,WSW,254,0.0,0.0,53,0.00,CLR,,0.00,0.0,WeatherDisplay:10.37,2013-10-13 23:39:00,
2013-10-13 18:44:00,53.6,37.3,30.41,WSW,254,0.0,0.0,54,0.00,CLR,,0.00,0.0,WeatherDisplay:10.37,2013-10-13 23:44:00,
2013-10-13 18:49:00,53.2,38.4,30.41,WSW,254,0.0,0.0,57,0.00,CLR,,0.00,0.0,WeatherDisplay:10.37,2013-10-13 23:49:00,
2013-10-13 18:54:00,52.8,38.0,30.41,WSW,254,0.0,0.0,57,0.00,CLR,,0.00,0.0,WeatherDisplay:10.37,2013-10-13 23:54:00,
2013-10-13 18:59:00,52.3,37.5,30.41,WSW,254,0.0,0.0,57,0.00,CLR,,0.00,0.0,WeatherDisplay:10.37,2013-10-13 23:59:00,
2013-10-13 19:04:00,52.0,37.7,30.41,WSW,254,0.0,0.0,58,0.00,CLR,,0.00,0.0,WeatherDisplay:10.37,2013-10-14 00:04:00,
2013-10-13 19:09:00,51.4,38.4,30.41,WSW,254,0.0,0.0,61,0.00,CLR,,0.00,0.0,WeatherDisplay:10.37,2013-10-14 00:09:00,
2013-10-13 19:14:00,51.0,39.2,30.41,WSW,254,0.0,0.0,64,0.00,CLR,,0.00,0.0,WeatherDisplay:10.37,2013-10-14 00:14:00,
2013-10-13 19:19:00,50.5,38.0,30.42,WSW,254,0.0,0.0,62,0.00,CLR,,0.00,0.0,WeatherDisplay:10.37,2013-10-14 00:19:00,
2013-10-13 19:24:00,50.1,37.6,30.42,WSW,254,0.0,0.0,62,0.00,CLR,,0.00,0.0,WeatherDisplay:10.37,2013-10-14 00:24:00,
2013-10-13 19:29:00,49.6,37.1,30.42,WSW,254,0.0,0.0,62,0.00,CLR,,0.00,0.0,WeatherDisplay:10.37,2013-10-14 00:29:00,
2013-10-13 19:34:00,49.4,37.7,30.42,WSW,254,0.0,0.0,64,0.00,CLR,,0.00,0.0,WeatherDisplay:10.37,2013-10-14 00:34:00,
2013-10-13 19:39:00,48.9,37.6,30.42,WSW,254,0.0,0.0,65,0.00,CLR,,0.00,0.0,WeatherDisplay:10.37,2013-10-14 00:39:00,
2013-10-13 19:44:00,48.6,37.7,30.42,WSW,254,0.0,0.0,66,0.00,CLR,,0.00,0.0,WeatherDisplay:10.37,2013-10-14 00:44:00,
2013-10-13 19:49:00,48.2,37.8,30.42,WSW,254,0.0,0.0,67,0.00,CLR,,0.00,0.0,WeatherDisplay:10.37,2013-10-14 00:49:00,
2013-10-13 19:54:00,47.9,38.2,30.42,WSW,254,0.0,0.0,69,0.00,CLR,,0.00,0.0,WeatherDisplay:10.37,2013-10-14 00:54:00,
2013-10-13 19:59:00,47.6,38.7,30.42,WSW,254,0.0,0.0,71,0.00,CLR,,0.00,0.0,WeatherDisplay:10.37,2013-10-14 00:59:00,
2013-10-13 20:04:00,47.1,39.2,30.42,WSW,254,0.0,0.0,74,0.00,CLR,,0.00,0.0,WeatherDisplay:10.37,2013-10-14 01:04:00,
2013-10-13 20:09:00,46.8,39.3,30.42,WSW,254,0.0,0.0,75,0.00,CLR,,0.00,0.0,WeatherDisplay:10.37,2013-10-14 01:09:00,
2013-10-13 20:14:00,46.5,39.0,30.42,WSW,254,0.0,0.0,75,0.00,CLR,,0.00,0.0,WeatherDisplay:10.37,2013-10-14 01:14:00,
2013-10-13 20:19:00,46.2,39.1,30.42,WSW,254,0.0,0.0,76,0.00,CLR,,0.00,0.0,WeatherDisplay:10.37,2013-10-14 01:19:00,
2013-10-13 20:24:00,46.0,38.9,30.42,WSW,254,0.0,0.0,76,0.00,CLR,,0.00,0.0,WeatherDisplay:10.37,2013-10-14 01:24:00,
2013-10-13 20:29:00,45.7,38.9,30.42,WSW,254,0.0,0.0,77,0.00,CLR,,0.00,0.0,WeatherDisplay:10.37,2013-10-14 01:29:00,
2013-10-13 20:34:00,45.4,38.6,30.42,WSW,254,0.0,0.0,77,0.00,CLR,,0.00,0.0,WeatherDisplay:10.37,2013-10-14 01:34:00,
2013-10-13 20:39:00,45.2,39.1,30.42,WSW,254,0.0,0.0,79,0.00,CLR,,0.00,0.0,WeatherDisplay:10.37,2013-10-14 01:39:00,
2013-10-13 20:44:00,44.9,39.1,30.42,WSW,254,0.0,0.0,80,0.00,CLR,,0.00,0.0,WeatherDisplay:10.37,2013-10-14 01:44:00,
2013-10-13 20:49:00,44.8,39.3,30.42,WSW,254,0.0,0.0,81,0.00,CLR,,0.00,0.0,WeatherDisplay:10.37,2013-10-14 01:49:00,
2013-10-13 20:54:00,44.5,39.3,30.42,WSW,254,0.0,0.0,82,0.00,CLR,,0.00,0.0,WeatherDisplay:10.37,2013-10-14 01:54:00,
2013-10-13 20:59:00,44.3,39.2,30.42,WSW,254,0.0,0.0,82,0.00,CLR,,0.00,0.0,WeatherDisplay:10.37,2013-10-14 01:59:00,
2013-10-13 21:04:00,44.5,39.7,30.42,WSW,254,0.0,0.0,83,0.00,CLR,,0.00,0.0,WeatherDisplay:10.37,2013-10-14 02:04:00,
2013-10-13 21:09:00,44.5,39.7,30.42,WSW,254,0.0,0.0,83,0.00,CLR,,0.00,0.0,WeatherDisplay:10.37,2013-10-14 02:09:00,
2013-10-13 21:14:00,44.2,39.4,30.42,WSW,254,0.0,0.0,83,0.00,CLR,,0.00,0.0,WeatherDisplay:10.37,2013-10-14 02:14:00,
2013-10-13 21:19:00,44.1,39.6,30.42,WSW,254,0.0,0.0,84,0.00,CLR,,0.00,0.0,WeatherDisplay:10.37,2013-10-14 02:19:00,
2013-10-13 21:24:00,43.8,39.0,30.42,WSW,254,0.0,0.0,83,0.00,CLR,,0.00,0.0,WeatherDisplay:10.37,2013-10-14 02:24:00,
2013-10-13 21:29:00,43.5,38.7,30.42,WSW,254,0.0,0.0,83,0.00,CLR,,0.00,0.0,WeatherDisplay:10.37,2013-10-14 02:29:00,
2013-10-13 21:34:00,43.3,38.8,30.42,WSW,254,0.0,0.0,84,0.00,CLR,,0.00,0.0,WeatherDisplay:10.37,2013-10-14 02:34:00,
2013-10-13 21:39:00,42.9,38.4,30.42,WSW,254,0.0,0.0,84,0.00,CLR,,0.00,0.0,WeatherDisplay:10.37,2013-10-14 02:39:00,
2013-10-13 21:44:00,42.6,38.1,30.42,WSW,254,0.0,0.0,84,0.00,CLR,,0.00,0.0,WeatherDisplay:10.37,2013-10-14 02:44:00,
2013-10-13 21:49:00,42.3,37.8,30.42,WSW,254,0.0,0.0,84,0.00,CLR,,0.00,0.0,WeatherDisplay:10.37,2013-10-14 02:49:00,
2013-10-13 21:54:00,42.3,38.1,30.42,WSW,254,0.0,0.0,85,0.00,CLR,,0.00,0.0,WeatherDisplay:10.37,2013-10-14 02:54:00,
2013-10-13 21:59:00,42.3,38.1,30.42,WSW,254,0.0,0.0,85,0.00,CLR,,0.00,0.0,WeatherDisplay:10.37,2013-10-14 02:59:00,
2013-10-13 22:04:00,42.3,38.1,30.42,WSW,254,0.0,0.0,85,0.00,CLR,,0.00,0.0,WeatherDisplay:10.37,2013-10-14 03:04:00,
2013-10-13 22:09:00,42.1,37.9,30.42,WSW,254,0.0,0.0,85,0.00,CLR,,0.00,0.0,WeatherDisplay:10.37,2013-10-14 03:09:00,
2013-10-13 22:14:00,42.1,38.2,30.42,WSW,254,0.0,0.0,86,0.00,CLR,,0.00,0.0,WeatherDisplay:10.37,2013-10-14 03:14:00,
2013-10-13 22:19:00,42.1,38.2,30.42,WSW,254,0.0,0.0,86,0.00,CLR,,0.00,0.0,WeatherDisplay:10.37,2013-10-14 03:19:00,
2013-10-13 22:24:00,41.9,38.0,30.42,WSW,254,0.0,0.0,86,0.00,CLR,,0.00,0.0,WeatherDisplay:10.37,2013-10-14 03:24:00,
2013-10-13 22:29:00,41.9,38.3,30.42,WSW,254,0.0,0.0,87,0.00,CLR,,0.00,0.0,WeatherDisplay:10.37,2013-10-14 03:29:00,
2013-10-13 22:34:00,41.8,38.2,30.42,WSW,254,0.0,0.0,87,0.00,CLR,,0.00,0.0,WeatherDisplay:10.37,2013-10-14 03:34:00,
2013-10-13 22:39:00,41.6,38.0,30.42,WSW,254,0.0,0.0,87,0.00,CLR,,0.00,0.0,WeatherDisplay:10.37,2013-10-14 03:39:00,
2013-10-13 22:44:00,41.5,37.9,30.43,WSW,254,0.0,0.0,87,0.00,CLR,,0.00,0.0,WeatherDisplay:10.37,2013-10-14 03:44:00,
2013-10-13 22:49:00,41.3,38.0,30.43,WSW,254,0.0,0.0,88,0.00,CLR,,0.00,0.0,WeatherDisplay:10.37,2013-10-14 03:49:00,
2013-10-13 22:54:00,41.2,37.9,30.43,WSW,254,0.0,0.0,88,0.00,CLR,,0.00,0.0,WeatherDisplay:10.37,2013-10-14 03:54:00,
2013-10-13 22:59:00,41.1,37.8,30.43,WSW,254,0.0,0.0,88,0.00,CLR,,0.00,0.0,WeatherDisplay:10.37,2013-10-14 03:59:00,
2013-10-13 23:01:00,41.1,37.8,30.43,WSW,254,0.0,0.0,88,0.00,CLR,,0.00,0.0,WeatherDisplay:10.37,2013-10-14 04:01:00,
2013-10-13 23:02:00,40.9,37.6,30.43,WSW,254,0.0,0.0,88,0.00,CLR,,0.00,0.0,WeatherDisplay:10.37,2013-10-14 04:02:00,
2013-10-13 23:04:00,40.9,37.6,30.43,WSW,254,0.0,0.0,88,0.00,CLR,,0.00,0.0,WeatherDisplay:10.37,2013-10-14 04:04:00,
2013-10-13 23:06:00,40.9,37.6,30.43,WSW,254,0.0,0.0,88,0.00,CLR,,0.00,0.0,WeatherDisplay:10.37,2013-10-14 04:06:00,
2013-10-13 23:11:00,40.8,37.8,30.43,WSW,254,0.0,0.0,89,0.00,CLR,,0.00,0.0,WeatherDisplay:10.37,2013-10-14 04:11:00,
2013-10-13 23:16:00,40.8,37.8,30.44,WSW,254,0.0,0.0,89,0.00,CLR,,0.00,0.0,WeatherDisplay:10.37,2013-10-14 04:16:00,
2013-10-13 23:21:00,40.5,37.5,30.44,WSW,254,0.0,0.0,89,0.00,CLR,,0.00,0.0,WeatherDisplay:10.37,2013-10-14 04:21:00,
2013-10-13 23:26:00,40.3,37.3,30.44,WSW,254,0.0,0.0,89,0.00,CLR,,0.00,0.0,WeatherDisplay:10.37,2013-10-14 04:26:00,
2013-10-13 23:31:00,40.2,37.2,30.44,WSW,254,0.0,0.0,89,0.00,CLR,,0.00,0.0,WeatherDisplay:10.37,2013-10-14 04:31:00,
2013-10-13 23:36:00,40.1,37.1,30.44,WSW,254,0.0,0.0,89,0.00,CLR,,0.00,0.0,WeatherDisplay:10.37,2013-10-14 04:36:00,
2013-10-13 23:41:00,39.9,37.2,30.44,WSW,254,0.0,0.0,90,0.00,CLR,,0.00,0.0,WeatherDisplay:10.37,2013-10-14 04:41:00,
2013-10-13 23:46:00,39.9,37.2,30.43,WSW,254,0.0,0.0,90,0.00,CLR,,0.00,0.0,WeatherDisplay:10.37,2013-10-14 04:46:00,
2013-10-13 23:51:00,39.8,37.1,30.43,WSW,254,0.0,0.0,90,0.00,CLR,,0.00,0.0,WeatherDisplay:10.37,2013-10-14 04:51:00,
2013-10-13 23:56:00,39.6,36.9,30.43,WSW,254,0.0,0.0,90,0.00,CLR,,0.00,0.0,WeatherDisplay:10.37,2013-10-14 04:56:00,